Regional Weather Roundup
Issued by NWS Grand Forks, ND

Home | Current Version | Previous Version | Graphics & Text | Print | Product List | Glossary On
Versions: 1 2 3 4 5 6 7 8 9 10 11 12 13 14 15 16 17 18 19 20 21 22 23 24 25 26 27 28 29 30 31 32 33 34 35 36 37 38 39 40 41 42 43 44 45 46 47 48 49 50
000
ASUS43 KFGF 040431
RWRFGF
PRAIRIE TO PINES  WEATHER ROUNDUP
NATIONAL WEATHER SERVICE EASTERN NORTH DAKOTA/GRAND FORKS ND
1100 PM CDT SUN MAY 03 2015

 **SATELLITE DATA USED TO AUGMENT SKY COVER AT AUTOMATED STATIONS**
 *****  WEATHER ACROSS EASTERN NORTH DAKOTA  *****

CITY           SKY/WX    TMP DP  RH WIND       PRES   REMARKS
GRAND FORKS    PTCLDY    49  29  46 N10       30.00R
GRAND FRKS AFB PTCLDY    49  26  40 NW8       30.00R
GRAND FRKS NWS   N/A     50 N/A N/A N6          N/A
DEVILS LAKE    CLEAR     46  32  57 NW7       30.05R
FARGO          CLEAR     51  26  37 NW7       29.99R
WAHPETON ARPT  CLEAR     52  21  30 N10       30.00R
$$

 ***** WEATHER ACROSS CENTRAL AND WESTERN NORTH DAKOTA  *****

CITY           SKY/WX    TMP DP  RH WIND       PRES   REMARKS
BISMARCK       PTCLDY    53  22  29 N6        30.08R
MINOT          CLEAR     47  27  45 NW9       30.07R
JAMESTOWN      PTCLDY    43  24  47 NW8       30.04R
MINOT AFB      CLEAR     38  24  55 NW6       30.07R
GARRISON         N/A     45  27  49 N5        30.08R
WILLISTON      PTCLDY    46  20  35 NE5       30.10R
DICKINSON      MOCLDY    42  27  55 S5        30.08R
HETTINGER      PTCLDY    44  26  49 NE9       30.10R
$$

 *****  OTHER AIRPORT OBSERVATIONS IN OUR AREA  *****

CITY           SKY/WX    TMP DP  RH WIND       PRES   REMARKS
WALHALLA       FAIR      45  32  61 NW5       30.05R
GRAFTON AIRPOR FAIR      50  30  46 N9        30.03R
VALLEY CITY AR FAIR      48  25  40 NW13      30.03S
CANDO          FAIR      41  28  60 N8        30.06R
CAVALIER APRT  FAIR      52  32  46 N7        30.04R
GWINNER        CLEAR     52  25  35 NW10      30.03R
ROLLA          NOT AVBL
 ***** THE ABOVE OBSERVATIONS ARE NON NWS ARE NOT QUALITY
       CONTROLLED AND MAY MIS-REPORT RAIN FOR SNOW...
$$

  *****  WEATHER ACROSS NORTHERN MINNESOTA  *****

CITY           SKY/WX    TMP DP  RH WIND       PRES   REMARKS
FLAG ISLAND    CLEAR     50  39  66 NW12      29.98R
WARROAD        CLEAR     46  37  71 N7        30.01R
ROSEAU         CLEAR     45  34  65 N7        30.00R
HALLOCK        CLEAR     48  30  49 N7        30.01R
THF RVR FALLS  CLEAR     52  32  46 N5        30.01R
BAUDETTE       CLEAR     46  37  71 N3        29.98R
WASKISH        CLEAR     46  36  66 CALM      29.99R
CROOKSTON      PTCLDY    50  30  46 NE3       30.01R
$$
  *****  WEATHER ACROSS CENTRAL AND WEST MINNESOTA  *****

CITY           SKY/WX    TMP DP  RH WIND       PRES   REMARKS
FOSSTON        NOT AVBL
BEMIDJI        CLEAR     51  33  50 N6        29.98R
PARK RAPIDS    CLEAR     50  26  39 N7        29.96R
ELBOW LAKE     FAIR      54  30  39 N8        29.99R
WADENA         CLEAR     52  28  40 NW5       29.99R
DETROIT LAKES  CLEAR     54  28  37 N6        29.99R
MOORHEAD       CLEAR     50  25  37 NW8       30.01R
FERGUS FALLS   CLEAR     54  27  35 N12       30.00R
MORRIS MN      CLEAR     54  27  35 N9        30.00R
STAPLES        CLEAR     46  30  53 CALM      29.98R
$$
  *****  WEATHER ELSEWHERE ACROSS MINNESOTA  *****

CITY           SKY/WX    TMP DP  RH WIND       PRES   REMARKS
DULUTH         PTCLDY    51  33  50 W8        29.93R
INTRNTL FALLS  CLEAR     47  34  60 NW7       29.95R
ELY            CLEAR     50  28  43 NW7       29.93R
CLOQUET        CLEAR     46  28  49 W6        29.94R
WHEATON        CLEAR     48  25  40 N7        30.02R
BRAINERD       CLEAR     44  34  67 CALM      29.97R
HIBBING        CLEAR     54  28  36 N12       29.94R
ALEXANDRIA     CLEAR     51  34  52 CALM      29.99R
SAINT CLOUD    FAIR      50  39  66 NW3       29.95R
MINNEAPOLIS    CLOUDY    61  45  55 N8        29.92R
$$

  *****  WEATHER ACROSS SOUTH DAKOTA  *****

CITY           SKY/WX    TMP DP  RH WIND       PRES   REMARKS
SIOUX FALLS    FAIR      57  34  41 N9        29.98R
BROOKINGS      CLEAR     54  30  40 NE3       30.03R
WATERTOWN      CLEAR     48  30  49 NE3       30.01R
HURON          CLEAR     50  28  42 N8        30.01R
SISSETON         N/A     48  24  39 N10       29.99R
ABERDEEN       CLEAR     50  25  37 N9        30.03R
MITCHELL       CLEAR     56  34  43 N10       30.01R
PIERRE         PTCLDY    52  24  33 N12       30.03S
MOBRIDGE       CLEAR     50  23  34 NE9       30.04R
RAPID CITY     PTCLDY    51  34  52 NE10      30.08R
$$

  *****  SOME WEATHER IN NEARBY STATES *****

CITY           SKY/WX    TMP DP  RH WIND       PRES   REMARKS
GLASGOW MT     CLEAR     45  27  49 E9        30.06R
GREAT FALLS MT CLEAR     53  30  41 E10       29.95R
CHEYENNE WY    CLOUDY    49  43  80 NW3       30.11R
SCOTTSBLUFF NE CLOUDY    56  41  57 E9        30.05R
OMAHA NE       CLOUDY    73  54  51 S6        29.82S
DES MOINES IA  CLOUDY    72  57  59 SE6       29.83R
DAVENPORT IA   CLOUDY    73  53  49 S15       29.88F
CHICAGO IL     PTCLDY    62  54  74 S10       29.92S
EAU CLAIRE WI  CLOUDY    56  53  90 NE5       29.88S
LA CROSSE WI   RAIN      61  59  93 E15       29.85F
$$

  *****  SOME NATIONAL WEATHER *****

CITY           SKY/WX    TMP DP  RH WIND       PRES   REMARKS
LA GUARDIA NY  CLEAR     59  47  64 S3        30.15R
RALEIGH NC     PTCLDY    63  48  58 S9        30.23R
ATLANTA GA     PTCLDY    67  49  52 S3        30.20R
NEW ORLEANS LA PTCLDY    69  55  60 SE5       30.13R
OKLAHOMA CITY  CLOUDY    67  55  65 S12       29.94R
ALBUQUERQUE NM PTCLDY    64  36  35 NW10      30.00R
SALT LAKE CITY MOCLDY    66  45  46 N8        29.86R
LOS ANGELES CA CLEAR     58  52  80 W16       29.87R
BOISE ID       CLEAR     67  28  23 CALM      29.80R
SEATTLE WA     CLEAR     59  34  38 N5        29.89S
$$

*** WEATHER ACROSS MANITOBA...SASKATCHEWAN AND ONTARIO ***
                ***ONTARIO***

CITY           SKY/WX    TMP DP  RH WIND       PRES   REMARKS
GERALDTON      PTCLDY    50  37  62 NE3       29.83R
THUNDER BAY    PTCLDY    54  28  37 W7        29.84S
SIOUX LOOKOUT  PTCLDY    45  37  76 NW8       29.92R
TORONTO        PTCLDY    64  43  45 SW9       30.03S
BIG TROUT LK   FLURRIES  32  32 100 NW6       29.91S
PICKLE LAKE    NOT AVBL
DRYDEN         PTCLDY    46  39  76 W7        29.94R
KENORA         CLEAR     46  37  71 NW8       29.98R
$$
                *** MANITOBA***

CITY           SKY/WX    TMP DP  RH WIND       PRES   REMARKS
BRANDON        CLEAR     41  30  65 NE7       30.07R
DAUPHIN        PTCLDY    45  32  61 W5        30.03R
ISLAND LAKE    CLOUDY    37  30  75 NW3       29.95S
PILOT MOUND      N/A     46  36  66 NE5         N/A
THE PAS        PTCLDY    41  30  65 NW6       30.01R
THOMPSON       MOCLDY    32  25  74 S2        29.93S
WINNIPEG       CLEAR     45  36  70 NE8       30.05R
LYNN LAKE      PTCLDY    32  30  93 NW9       29.95R WCI  24
CHURCHILL      FLURRIES  25  21  86 N10       29.93R WCI  15
GILLAM         PTCLDY    28  23  80 SE3       29.94F
$$
                ***SASKATCHEWAN***

CITY           SKY/WX    TMP DP  RH WIND       PRES   REMARKS
ESTEVAN        PTCLDY    43  32  65 NW3       30.09R
KINDERSLEY     PTCLDY    37  32  81 E12       30.07R
LLOYDMINSTER   PTCLDY    37  32  81 SW8       30.04R
PRINCE ALBERT  PTCLDY    36  25  64 N3        30.05R
REGINA         PTCLDY    43  32  65 S6        30.10R
YORKTON        CLEAR     43  32  65 SW8       30.06R
N. BATTLEFORD  CLEAR     41  30  65 N6        30.08R
LA RONGE       PTCLDY    36  21  55 NW5       30.07R
SASKATOON      PTCLDY    43  28  56 W7        30.08R
SWIFT CURRENT  PTCLDY    37  28  70 E6        30.08R
$$
NOTE: THESE ARE AUTOMATED STATIONS WITH LIMITED QUALITY CONTROL
      "FAIR" INDICATES FEW OR NO CLOUDS BELOW 12,000 FEET WITH NO
      SIGNIFICANT WEATHER AND/OR OBSTRUCTIONS TO VISIBILITY.
      SKY/WX - SKY CONDITION AND SIGNIFICANT WEATHER.
      TMP - AIR TEMPERATURE.    DP   - DEWPOINT TEMPERATURE.
      RH  - RELATIVE HUMIDITY.  PRES - PRESSURE.
      HX  - HEAT INDEX.         WCI  - WIND CHILL INDEX.
$



USA.gov is the U.S. government's official web portal to all federal, state and local government web resources and services.